Location: Newark
(35.2672°N, 80.7344°W)
Time: 18:43:51
(UTC+00:00)

Explorer 11/Cluster Stage 4 - Visible Passes

Search period start: 19 January 2020 00:00
Search period end: 29 January 2020 00:00
Orbit: 467 x 1259 km, 28.8° (Epoch: 18 January)

Date Brightness Start Highest point End Pass type
(mag) Time Alt. Az. Time Alt. Az. Time Alt. Az.
19 Jan 8.3 01:25:00 10° WSW 01:27:32 23° SW 01:27:32 23° SW visible
19 Jan 7.5 23:24:44 10° WSW 23:30:46 44° S 23:35:33 10° ESE visible
20 Jan 8.0 01:14:08 10° WSW 01:17:42 28° SW 01:17:42 28° SW visible
20 Jan 7.6 23:13:43 10° WSW 23:20:01 45° S 23:25:04 10° ESE visible
21 Jan 7.8 01:03:16 10° WSW 01:07:55 30° SSW 01:07:55 30° SSW visible
21 Jan 7.7 23:02:42 10° WSW 23:09:15 46° S 23:14:31 10° ESE visible
22 Jan 7.8 00:52:23 10° WSW 00:57:25 29° SSW 00:58:11 28° S visible
23 Jan 8.0 00:41:31 10° WSW 00:46:38 28° SSW 00:48:31 22° SSE visible
24 Jan 8.4 00:30:38 10° WSW 00:35:50 26° SSW 00:38:55 16° SSE visible
25 Jan 8.6 00:19:47 10° WSW 00:24:59 25° SSW 00:29:24 10° SSE visible
26 Jan 8.9 00:08:56 10° WSW 00:14:07 23° SSW 00:18:34 10° SSE visible
26 Jan 9.0 23:58:07 10° WSW 00:03:14 21° SSW 00:07:40 10° SSE visible
27 Jan 9.2 23:47:21 10° WSW 23:52:18 20° SSW 23:56:41 10° SSE visible
28 Jan 9.3 23:36:39 10° WSW 23:41:22 18° SSW 23:45:37 10° S visible
